Location: Marsån
(66.4167°N, 22.2833°E)
Time: 11:17:18
(UTC+00:00)

Geosat - Pass Details

Date: 24 February 2024
Orbit: 760 x 763 km, 108.1° (Epoch: 15 April)

Event Time Altitude Azimuth Distance (km) Brightness Sun altitude
Exits shadow 16:14:10 - 103° (ESE) 2,803 6.3 -5.7°
Reaches altitude 10° 16:15:25 10° 101° (E) 2,304 5.9 -5.8°
Maximum altitude 16:20:20 59° 23° (NNE) 882 4.2 -6.3°
Drops below altitude 10° 16:25:17 10° 305° (NW) 2,311 7.2 -6.8°
Sets 16:27:35 0° 302° (WNW) 3,239 8.1 -7.0°
